Regional Weather Roundup
Issued by NWS Little Rock, AR

Home | Current Version | Previous Version | Text Only | Print | Product List | Glossary Off
Versions: 1 2 3 4 5 6 7 8 9 10 11 12 13 14 15 16 17 18 19 20 21 22 23 24 25 26 27 28 29 30 31 32 33 34 35 36 37 38 39 40 41 42 43 44 45 46 47 48 49 50

185
ASUS44 KLZK 211405
RWRLZK

WEATHER ROUNDUP FOR ARKANSAS
NATIONAL WEATHER SERVICE LITTLE ROCK AR
800 AM CST TUE FEB 21 2017

NOTE: "FAIR" INDICATES FEW OR NO CLOUDS BELOW 12,000 FEET WITH NO
SIGNIFICANT WEATHER AND/OR OBSTRUCTIONS TO VISIBILITY.

ARZ001-003-010-029-211500-
NORTHWEST ARKANSAS

CITY           SKY/WX    TMP DP  RH WIND       PRES   REMARKS
FAYETTEVILLE   CLOUDY    55  55 100 N5        29.92R
FORT SMITH     LGT RAIN  57  54  89 W7        29.90R
HARRISON       CLOUDY    56  55  97 N6        29.90R
BENTONVILLE    CLOUDY    55  52  88 N5        29.93R
ROGERS         CLOUDY    54  53  97 NW6       29.93R
SILOAM SPGS    CLOUDY    54  52  94 N7        29.92R
HIGHFILL       CLOUDY    55  54  96 N8        29.92R
SPRINGDALE     CLOUDY    55  55 100 NW5       29.93R
$$

ARZ004-005-016-211500-
NORTH CENTRAL ARKANSAS

CITY           SKY/WX    TMP DP  RH WIND       PRES   REMARKS
BATESVILLE     CLOUDY    57  55  94 E8        29.85S
FLIPPIN        CLOUDY    57  52  82 NW6       29.85S
MTN HOME       CLOUDY    56  56 100 CALM      29.87R
$$

ARZ040-041-211500-
WEST CENTRAL ARKANSAS

CITY           SKY/WX    TMP DP  RH WIND       PRES   REMARKS
MENA           CLOUDY    59  57  94 W7        29.89S
MOUNT IDA      LGT RAIN  57  56  96 CALM      29.84S
$$

ARZ009-017-025-026-028-211500-
NORTHEAST ARKANSAS

CITY           SKY/WX    TMP DP  RH WIND       PRES   REMARKS
CORNING        CLOUDY    59  59 100 E10G17    29.88R
JONESBORO      CLOUDY    58  56  93 E6        29.85R
NEWPORT        LGT RAIN  58  57  97 MISG      29.86R
WALNUT RIDGE   CLOUDY    57  54  88 NE9       29.86R
BLYTHEVILLE    PTSUNNY   58  57  97 E10       29.84F
NW BLYTHEVILLE PTSUNNY   57  55  94 E10       29.83
$$

ARZ022-023-033-042-044-211500-
CENTRAL ARKANSAS

CITY           SKY/WX    TMP DP  RH WIND       PRES   REMARKS
LITTLE ROCK    RAIN      57  57 100 SW8       29.86R FOG
N LITTLE ROCK    N/A     58  56  96 CALM      29.86R
JACKSONVILLE   LGT RAIN  59  59 100 SW5       29.84R FOG
SEARCY         CLOUDY    60  60 100 CALM      29.86R
HOT SPRINGS    CLOUDY    57  57 100 W3        29.86S
RUSSELLVILLE   CLOUDY    58  57  97 CALM      29.85R
CLINTON        CLOUDY    59  57  94 VRB3      29.85S
$$

ARZ036-211500-
EAST ARKANSAS

CITY           SKY/WX    TMP DP  RH WIND       PRES   REMARKS
WEST MEMPHIS   CLOUDY    59  59 100 S7        29.86R
$$

ARZ050-053-066-070-073-211500-
SOUTHWEST ARKANSAS

CITY           SKY/WX    TMP DP  RH WIND       PRES   REMARKS
ARKADELPHIA      N/A    N/A N/A N/A MISG        N/A
CAMDEN         LGT RAIN  57  55  94 SW7       29.90R
TEXARKANA      HVY RAIN  56  56 100 SW9       29.91S FOG
EL DORADO      LGT RAIN  58  57  97 SW7       29.91R
DE QUEEN       LGT RAIN  57  57 100 SW6       29.89R FOG
$$

ARZ056-057-069-211500-
SOUTHEAST ARKANSAS

CITY           SKY/WX    TMP DP  RH WIND       PRES   REMARKS
PINE BLUFF     CLOUDY    58  57  97 SW7       29.87S
STUTTGART      CLOUDY    59  52  77 SW9       29.87S
MONTICELLO     CLOUDY    59  57  93 SW7       29.89R FOG

$$






USA.gov is the U.S. government's official web portal to all federal, state and local government web resources and services.